Main page
METAR-TAF:

METAR-TAF

Airports :

MoD Boscombe Down

Boscombe Down, England

latitude: 51-10N, longitude: 001-45W, elevation: 124 m

Current weather observation

The report was made 1 hour and 14 minutes ago, at 02:50 UTC
Wind 6 kt from the Northwest
Temperature 10°C
Humidity 82%
Pressure 1035 hPa
Visibility 10 km or more

METAR: EGDM 260250Z AUTO 31006KT 9999 NCD 10/07 Q1035

Time: 05:04 (04:04 UTC)


TAF: missing

Weather observations and forecasts of more than 4000 airports (METAR and TAF reports).

The available stations are represented by yellow and red dots on the map.

Hover mouse over dot to see the name of the station.

Then click to see weather observations and forecasts.

To change the map : click on the green buttons with a black cross to zoom in, on the green button with a dash to zoom out, or on the green arrows for adjacent maps.


METAR-TAF: